星链-38015(STARLINK-38015)

导读

STARLINK-38015(NORAD编号69726)是太空探索技术公司(SpaceX)星链低轨互联网星座的组网卫星,为V2.0 Mini改进版型号,设计寿命约5年。该卫星运行于距地表约550千米的近地轨道,轨道周期约94分钟,核心使命是为全球尤其是电信基础设施薄弱区域提供千兆级高速互联网接入服务,支持星地通信传输,部分同批次卫星具备直连手机通信能力。其所属巨型星座最终规划规模达4.2万颗,但在轨运行也可能对光学、射电天文观测造成一定干扰。

基本信息
目录编号:
69726
目录名称:
STARLINK-38015
国际标识:
2026-147Y
轨道中心:
EARTH
卫星名称:
星链-38015
卫星全名:
星链-38015(STARLINK-38015)
卫星状态:
在轨 (已飞行69 天)
发射日期:
2026-06-28 UTC
国别 :
美国 (US)
星等 :
--
轨道信息
数据来源 国际轨道数据
星历时间: 2026-09-05T01:29:14+0800
14小时前
查看轨道信息
半长轴: 6722.147km
偏心率: 0.0001138
轨道倾角: 97.284°
近地点辐角 17.442°
升交点赤经 286.710°
平近点角 342.688°
近地点: 343.245km
远地点: 344.775km
周期: 91.416分钟
每日圈数: 15.752184
详细信息
固有亮度:
5
最大亮度:
2.5
卫星平台:
Starlink V1.0
覆盖范围:
全球
运营商:
太空探索技术公司
运营商所在国:
美国
制造商(研发单位):
太空探索技术公司
制造商所在国:
美国
使用方式:
暂无
卫星简介
Starlink 计划是 SpaceX 推出的全球卫星互联网项目,通过发射低轨道卫星,为全球尤其是偏远地区提供高速、低延迟的互联网服务。自 2019 年起,Starlink 已部署数千颗卫星,旨在缩小全球数字鸿沟,推动互联网普及。该项目还为军事、航空等行业提供通信支持,带来广泛经济效益。
2D轨道图
3D轨道图
轨道高度分析图
轨道倾角分析图
轨道综合分析图
查看轨道综合分析图
交会数据列表
事件ID 空间交会对象 最接近时刻(TCA) 交会距离 交会风险概率(CRP) 交会风险指数(CRI) 操作
CDM_260907-003406-972606-997621
2026-09-07T
00:34:36+0000
2.818 km
极远距离
1.468715E-6 低风险 0.38